Probability
0 0 0 0 0 0 0 0 0 0 0 0 0 0 0 0 0 0 0 0 0 0 0 0 0 0 0 0 0 0 0 0 0 0 0 0 0 0 0 0 0 0 0
0 0 0 0 0 0 0 0 0 0 0 0 0 0 0 0 0 0 0 0 0 0 0 0 0 0 0 0 0 0 0 0 0 0 0 0 0 0 0 0 0 0 0
0 0 0 0 0 0 0 0 0 0 0 0 0 0 0 0 0 0 0 0 0 0 0 0 0 0 0 0 0 0 0 0 0 0 0 0 0 0 0 0 0 0 0
0 0 0 0 0 0 0 0 0 0 0 0 0 0 0 0 0 0 0 0 0 0 0 0 0 0 0 0 0 0 0 0 0 0 0 0 0 0 0 0 0 0 0
0 0 0 0 0 0 0 0 0 0 0 0 0 0 0 0 0 0 0 0 0 0 0 0 0 0 0 0 0 0 0 0 0 0 0 0 0 0 0 0 0 0 0
0 0 0 0 0 0 0 0 0 0 0 0 0 0 0 0 0 0 0 0 0 0 0 0 0 0 0 0 0 0 0 0 0 0 0 0 0 0 0 0 0 0 0
0 0 0 0 0 0 0 0 0 0 0 0 0 0 0 0 0 0 0 0 0 0 0 0 0 0 0 0 0 0 0 0 0 0 0 0 0 0 0 0 0 0 0
0 0 0 0 0 0 0 0 0 0 0 0 0 0 0 0 0 0 0 0 0 0 0 0 0 0 0 0 0 0 0 0 0 0 0 0 0 0 0 0 0 0 0
0 0 0 0 0 0 0 0 0 0 0 0 0 0 0 0 0 0 0 0 0 0 0 0 0 0 0 0 0 0 0 0 0 0 0 0 0 0 0 0 0 0 0
0 0 0 0 0 0 0 0 0 0 0 0 0 0 0 0 0 0 0 0 0 0 0 0 0 0 0 0 0 0 0 0 0 0 0 0 0 0 0 0 0 0 0
0 0 0 0 0 0 0 0 0 0 0 0 0 0 0 0 0 0 0 0 0 0 0 0 0 0 0 0 0 0 0 0 0 0 0 0 0 0 0 0 0 0 0
0 0 0 0 0 0 0 0 0 0 0 0 0 0 0 0 0 0 0 0 0 0 0 0 0 0 0 0 0 0 0 0 0 0 0 0 0 0 0 0 0 0 0
0 0 0 0 0 0 0 0 0 0 0 0 0 0 0 0 0 0 0 0 0 0 0 0 0 0 0 0 0 0 0 0 0 0 0 0 0 0 0 0 0 0 0
0 0 0 0 0 0 0 0 0 0 0 0 0 0 0 0 0 0 0 0 0 0 0 0 0 0 0 0 0 0 0 0 0 0 0 0 0 0 0 0 0 0 0
0 0 0 0 0 0 0 0 0 0 0 0 0 0 0 0 0 0 0 0 0 0 0 0 0 0 0 0 0 0 0 0 0 0 0 0 0 0 0 0 0 0 0
0 0 0 0 0 0 0 0 0 0 0 0 0 0 0 0 0 0 0 0 0 0 0 0 0 0 0 0 0 0 0 0 0 0 0 0 0 0 0 0 0 0 0
0 0 0 0 0 0 0 0 0 0 0 0 0 0 0 0 0 0 0 0 0 0 0 0 0 0 0 0 0 0 0 0 0 0 0 0 0 0 0 0 0 0 0
0 0 0 0 0 0 0 0 0 0 0 0 0 0 0 0 0 0 0 0 0 0 0 0 0 0 0 0 0 0 0 0 0 0 0 0 0 0 0 0 0 0 0
0 0 0 0 0 0 0 0 0 0 0 0 0 0 0 0 0 0 0 0 0 0 0 0 0 0 0 0 0 0 0 0 0 0 0 0 0 0 0 0 0 0 0
0 0 0 0 0 0 0 0 0 0 0 0 0 0 0 0 0 0 0 0 0 0 0 0 0 0 0 0 0 0 0 0 0 0 0 0 0 0 0 0 0 0 0
0 0 0 0 0 0 0 0 0 0 0 0 0 0 0 0 0 0 0 0 0 0 0 0 0 0 0 0 0 0 0 0 0 0 0 0 0 0 0 0 0 0 0
0 0 0 0 0 0 0 0 0 0 0 0 0 0 0 0 0 0 0 0 0 0 0 0 0 0 0 0 0 0 0 0 0 0 0 0 0 0 0 0 0 0 0
0 0 0 0 0 0 0 0 0 0 0 0 0 0 0 0 0 0 0 0 0 0 0 0 0 0 0 0 0 0 0 0 0 0 0 0 0 0 0 0 0 0 0
0 0 0 0 0 0 0 0 0 0 0 0 0 0 0 0 0 0 0 0 0 0 0 0 0 0 0 0 0 0 0 0 0 0 0 0 0 0 0 0 0 0 0
0 0 0 0 0 0 0 0 0 0 0 0 0 0 0 0 0 0 0 0 0 0 0 0 0 0 0 0 0 0 0 0 0 0 0 0 0 0 0 0 0 0 0
0 0 0 0 0 0 0 0 0 0 0 0 0 0 0 0 0 0 0 0 0 0 0 0 0 0 0 0 0 0 0 0 0 0 0 0 0 0 0 0 0 0 0
Wind_Speed
2 3 3 3 4 5 5 6 6 6 6 7 6 6 5 4 4 4 2 2 1 1 1 1 1 1 1 0 0 1 1 2 3 1 1 1 1 2 2 3 3 4 4
2 3 3 4 4 5 5 6 6 7 6 6 6 6 5 4 4 3 2 2 1 1 1 1 1 1 1 0 0 1 1 1 2 2 1 1 1 2 2 3 3 3 3
2 3 4 4 5 5 5 6 6 6 6 6 6 5 5 4 4 3 3 2 2 1 1 1 1 2 1 1 1 1 1 1 1 1 1 1 1 1 2 2 2 2 3
2 3 4 4 5 5 5 5 5 6 6 6 5 5 5 4 3 3 3 2 2 1 1 1 1 2 2 1 1 1 1 1 0 1 1 1 1 1 2 1 1 2 2
3 3 4 4 5 5 5 5 5 5 5 5 5 5 4 3 3 3 3 3 2 2 1 1 1 1 2 2 1 1 1 1 0 1 1 1 1 1 1 1 1 1 1
3 4 4 4 5 5 6 6 5 5 5 5 5 5 4 3 4 6 4 3 3 3 2 1 1 1 1 2 2 1 1 1 2 1 1 2 2 2 2 2 2 1 0
3 3 4 5 6 5 6 6 6 5 5 5 4 4 4 3 5 5 5 4 3 2 2 2 1 1 3 3 4 5 5 4 1 2 2 3 3 3 4 2 2 1 1
3 3 4 5 6 5 6 6 5 4 5 4 4 4 4 4 5 5 5 4 3 2 2 3 3 2 2 3 2 2 2 3 2 1 1 2 2 3 3 3 3 2 1
3 4 4 5 6 6 7 6 5 4 4 4 4 5 5 4 6 6 6 3 2 2 2 3 3 3 5 5 4 2 1 2 3 5 5 4 5 6 5 4 3 2 1
4 4 4 5 6 7 7 6 4 4 5 5 4 5 5 5 7 8 8 3 3 2 2 3 6 6 7 6 4 4 3 2 1 2 4 5 4 3 4 3 3 3 1
3 2 3 4 5 6 5 5 5 5 5 5 5 4 5 6 7 10 10 4 4 4 3 3 3 8 8 8 7 5 5 4 3 2 2 1 1 2 2 2 2 3 3
2 2 3 4 4 4 5 5 5 6 6 5 5 4 4 5 7 9 12 10 9 5 4 4 4 9 9 9 6 7 8 5 3 2 2 2 1 1 1 1 2 2 2
2 2 2 3 3 4 5 6 5 6 5 5 5 5 4 4 6 13 13 13 13 7 5 8 9 10 9 7 8 9 6 3 3 3 3 3 2 2 2 2 2 2 1
2 2 2 3 3 4 4 5 6 6 6 6 6 6 5 4 5 5 5 6 10 8 6 8 11 10 8 7 6 5 3 4 4 4 3 3 2 3 2 2 2 2 1
3 3 3 3 4 4 5 6 7 7 7 7 6 6 6 6 8 12 8 6 5 5 4 3 3 3 3 3 3 3 3 3 4 3 3 3 3 3 3 3 3 2 2
4 3 3 3 3 3 4 4 9 9 12 13 11 9 7 10 10 12 14 15 14 13 8 4 5 6 6 6 6 5 5 5 5 5 4 4 4 4 4 3 3 3 3
4 4 3 3 3 3 4 4 4 6 11 13 14 15 14 12 13 12 13 14 15 15 8 6 6 6 6 6 6 6 6 5 5 5 5 5 5 4 4 4 4 4 4
5 5 4 4 4 4 4 4 4 4 4 4 9 14 15 14 13 13 13 10 8 9 6 7 7 7 7 6 6 6 6 5 5 6 6 5 6 5 5 5 5 5 5
5 4 4 4 4 4 4 4 4 5 5 4 3 5 11 12 13 13 12 7 6 6 6 7 7 7 7 7 7 6 6 6 6 6 6 7 6 6 6 6 6 9 7
5 8 7 4 4 4 4 4 4 4 5 4 5 4 3 4 5 6 7 6 6 6 7 7 7 7 7 7 7 6 6 7 7 7 7 6 6 6 7 8 7 6 6
4 5 7 5 4 4 4 4 4 4 4 5 5 5 8 5 5 6 6 6 6 7 7 6 6 6 6 6 6 7 8 7 7 7 7 7 7 7 6 6 7 7 6
4 4 4 4 4 4 4 4 4 4 4 5 4 5 9 5 4 5 5 5 5 5 5 5 5 5 6 6 7 7 7 8 7 7 7 7 7 7 7 7 7 6 6
4 5 5 4 4 6 6 4 4 4 4 4 4 3 3 4 4 4 4 4 4 4 4 4 4 4 5 5 6 6 7 7 7 7 7 7 7 7 7 7 8 8 7
5 5 5 4 4 4 4 4 4 4 4 3 3 3 3 3 3 3 3 3 3 3 3 3 4 5 6 5 4 5 5 6 6 7 9 8 7 7 7 6 7 8 8
4 5 5 4 4 4 4 4 4 4 3 3 3 2 2 2 2 2 2 2 2 2 3 3 3 4 6 7 5 5 7 10 9 6 6 7 7 8 7 7 7 6 7
5 5 4 4 4 4 4 4 4 3 3 2 2 2 2 1 1 2 2 2 2 2 2 3 3 4 5 5 6 7 9 11 12 12 7 6 7 7 7 6 8 7 7
Wind_Direction
126 126 127 126 127 129 133 135 133 129 132 132 130 127 122 117 112 111 120 130 143 151 146 172 173 150 160 244 276 261 257 251 255 168 112 113 115 108 78 64 57 45 39
137 130 131 128 125 125 127 129 129 128 128 128 128 124 124 120 116 120 126 123 140 164 175 166 178 154 160 204 252 260 263 265 241 213 164 142 125 122 106 85 61 53 40
138 137 137 138 137 136 135 132 130 129 126 124 124 125 125 125 123 127 135 133 132 148 179 192 191 171 189 203 224 256 272 276 253 195 164 128 111 109 99 79 68 42 41
152 156 163 164 156 147 139 136 136 134 132 132 129 131 132 133 133 134 132 128 124 124 144 166 172 182 197 199 210 254 271 267 223 155 142 131 122 108 113 117 95 44 32
172 179 185 166 149 142 141 140 138 136 136 135 131 130 131 135 148 150 147 148 152 148 137 132 159 175 193 187 180 208 202 198 174 164 154 141 151 148 154 133 132 80 48
197 198 178 159 155 156 153 148 142 137 136 136 142 146 151 161 173 172 162 159 166 170 174 157 116 95 100 99 94 108 150 176 193 184 181 184 183 168 137 136 127 117 223
210 197 179 169 168 168 159 153 156 155 150 150 156 159 167 186 193 190 179 161 168 179 186 182 171 134 99 84 73 56 41 38 119 178 187 197 183 179 155 141 138 144 168
215 202 187 178 175 167 164 169 166 157 161 165 170 171 174 203 209 203 186 151 159 181 194 191 184 172 167 151 127 86 47 24 37 81 165 180 169 154 152 147 139 114 89
228 216 199 187 179 174 180 181 172 165 170 172 173 177 184 207 214 205 173 146 167 194 202 198 194 196 211 187 156 148 105 7 49 96 110 117 129 141 138 114 117 110 139
245 230 205 191 188 190 190 181 173 173 179 174 180 185 189 202 216 211 186 160 179 199 209 217 219 213 220 204 169 172 191 209 115 75 69 62 58 82 118 129 143 136 151
262 226 204 198 197 194 184 175 170 171 171 179 188 196 199 208 220 222 209 178 187 195 206 211 223 229 226 219 192 188 209 191 166 148 125 98 75 71 80 106 132 145 156
260 229 215 204 196 185 178 177 174 173 179 189 197 210 212 215 217 226 227 217 202 195 205 204 217 230 231 228 212 204 216 188 151 157 167 185 187 189 164 137 135 136 150
286 255 235 211 200 187 183 181 180 185 192 197 203 215 216 207 219 226 229 230 223 206 204 213 220 228 230 232 228 218 208 168 162 182 199 207 200 183 153 135 120 120 114
282 265 239 218 212 200 195 190 192 196 201 204 208 216 215 209 209 213 220 230 232 222 207 219 225 228 220 216 227 227 185 175 181 193 199 194 163 159 170 167 165 156 159
289 271 250 232 223 216 213 210 208 211 208 205 209 206 207 220 220 211 201 208 203 200 172 169 180 188 201 199 199 201 190 190 201 185 188 185 185 183 185 171 168 161 179
290 279 263 249 239 230 228 233 227 225 229 227 221 213 221 228 230 222 219 220 218 211 195 187 199 205 210 210 209 208 203 203 200 194 194 195 195 193 191 177 175 183 201
280 277 272 261 250 241 233 234 244 237 235 236 234 232 231 232 234 231 227 224 221 214 208 201 205 209 212 210 209 208 210 205 195 196 201 200 197 194 190 193 192 196 210
285 275 268 260 253 246 239 237 237 236 237 240 237 237 237 235 233 230 227 220 219 215 207 208 209 209 209 210 211 212 212 202 197 202 201 199 196 193 194 198 197 202 208
290 279 270 265 260 255 246 238 236 237 239 240 230 236 236 238 236 232 224 212 207 211 211 212 211 209 209 208 209 209 207 206 202 199 202 200 197 195 202 204 203 216 212
288 284 280 272 267 263 255 246 239 236 236 236 234 230 212 210 218 219 216 209 210 213 212 214 213 211 209 208 207 206 208 209 205 205 204 200 197 196 202 202 202 206 211
284 285 285 279 270 266 261 255 251 245 241 241 239 232 221 213 218 217 215 214 215 216 214 213 213 211 211 207 206 207 209 210 207 205 204 200 196 199 202 201 202 204 207
280 279 276 274 270 266 265 259 255 253 249 249 251 248 243 229 219 221 219 218 218 217 212 208 211 211 208 207 206 207 210 212 208 204 203 200 197 198 196 198 201 201 203
280 281 279 276 273 274 274 266 261 259 256 253 252 245 238 227 224 223 223 220 214 212 207 207 213 214 210 208 207 208 212 212 206 199 198 198 198 198 197 201 201 200 204
275 276 277 278 277 273 271 270 266 263 259 259 255 250 242 234 231 230 227 221 214 211 209 209 216 220 217 212 210 212 215 209 198 199 198 197 198 197 198 201 203 206 205
269 270 269 267 268 272 275 275 274 270 266 262 260 260 253 242 235 233 235 231 228 226 226 223 223 226 228 226 221 216 219 219 211 199 195 199 200 198 197 199 201 202 204
265 266 267 265 262 263 267 270 272 273 273 274 270 265 262 257 250 241 235 231 233 234 237 233 232 232 230 228 228 229 232 230 225 215 203 199 199 200 197 200 199 202 203